Stations météo

réclame
Mon MeteoGroup
Beauvechain, Belgique (6458): Température de l'air & dewpoint: 16.10.2019 10:00:00 - 22.10.2019 10:00:00 (CEST)Beauvechain, Belgique (6458): Vitesse du vent & gusts: 16.10.2019 10:00:00 - 22.10.2019 10:00:00 (CEST)Beauvechain, Belgique (6458): Direction du vent: 16.10.2019 10:00:00 - 22.10.2019 10:00:00 (CEST)Beauvechain, Belgique (6458): reduced air pressure: 16.10.2019 10:00:00 - 22.10.2019 10:00:00 (CEST)Beauvechain, Belgique (6458): visibility: 16.10.2019 10:00:00 - 22.10.2019 10:00:00 (CEST)
Date & Time tt [°C] td [°C] ff [km/h] ff [knt] fx [km/h] fx [knt] dd ppp [hPa] vv [km]
22.10.2019 10:00:00 11,3 10,9 7 4 14 8 SSW 1024,9 5
22.10.2019 09:00:00 11,1 10,8 11 6 14 8 SW 1024,4 5
22.10.2019 08:00:00 11,0 10,8 11 6 - - SW 1023,5 7
22.10.2019 07:00:00 10,8 10,4 14 8 25 14 SSW 1022,7 10
22.10.2019 06:00:00 10,8 10,4 18 10 25 14 SSW 1022,3 10
22.10.2019 05:00:00 10,8 10,5 18 10 - - SSW 1022,3 4,9
22.10.2019 04:00:00 10,8 10,3 16 9 25 14 SSW 1022,2 3,6
22.10.2019 03:00:00 11,1 10,2 14 8 25 14 SSW 1022,2 4,8
22.10.2019 02:00:00 11,6 9,7 14 8 - - SSW 1021,7 20
22.10.2019 01:00:00 11,8 9,6 14 8 29 16 S 1021,6 20
22.10.2019 00:00:00 12,1 9,6 18 10 29 16 SSW 1021,3 20
21.10.2019 23:00:00 12,0 9,6 18 10 - - SSW 1020,7 20
21.10.2019 22:00:00 11,9 9,3 22 12 29 16 SSW 1020,2 20
21.10.2019 21:00:00 11,8 9,4 22 12 29 16 SSW 1020,0 20
21.10.2019 20:00:00 11,8 9,3 14 8 - - S 1019,7 20
21.10.2019 19:00:00 12,1 8,8 18 10 29 16 S 1019,0 20
21.10.2019 18:00:00 12,3 8,9 22 12 32 18 S 1018,2 20
21.10.2019 17:00:00 12,5 8,9 21 11 - - SSW 1017,8 10
21.10.2019 16:00:00 12,2 8,5 11 6 29 16 S 1017,7 20
21.10.2019 15:00:00 12,1 8,4 18 10 32 18 S 1017,5 20
21.10.2019 14:00:00 11,8 8,4 22 12 - - SSW 1017,5 20
21.10.2019 13:00:00 12,0 8,9 21 11 29 16 SSW 1016,8 10
21.10.2019 12:00:00 12,1 9,6 18 10 32 18 S 1016,0 20
21.10.2019 11:00:00 12,5 9,8 18 10 - - S 1015,0 20
21.10.2019 10:00:00 12,5 9,5 22 12 40 21 S 1014,1 10
21.10.2019 09:00:00 12,8 11,5 14 8 25 14 S 1012,7 11
21.10.2019 08:00:00 10,9 10,9 8 4 - - SE 1011,7 4,0
21.10.2019 07:00:00 11,0 10,9 8 4 18 10 ESE 1011,1 2,3
21.10.2019 06:00:00 10,8 10,8 14 8 22 12 E 1010,7 0,8
21.10.2019 05:00:00 10,5 10,5 11 6 - - ENE 1010,3 0,3
21.10.2019 04:00:00 10,4 10,4 11 6 18 10 ENE 1010,5 0,3
21.10.2019 03:00:00 10,3 10,3 11 6 18 10 ENE 1010,2 0,2
21.10.2019 02:00:00 10,3 10,3 11 6 - - ENE 1010,7 0,3
21.10.2019 01:00:00 10,3 10,3 11 6 18 10 NE 1010,2 1,4
21.10.2019 00:00:00 10,1 10,1 14 8 18 10 NE 1009,7 1,9
20.10.2019 23:00:00 10,1 10,0 11 6 - - NE 1010,3 2,8
20.10.2019 22:00:00 9,8 9,7 11 6 18 10 NNE 1009,3 2,1
20.10.2019 21:00:00 9,8 9,5 11 6 22 12 NNE 1009,6 3,8
20.10.2019 20:00:00 9,8 9,4 14 8 - - NNE 1009,2 5
20.10.2019 19:00:00 10,2 9,6 11 6 18 10 N 1009,2 12
20.10.2019 18:00:00 10,5 9,6 14 8 18 10 NE 1008,6 20
20.10.2019 17:00:00 10,6 9,6 11 6 - - NE 1008,7 20
20.10.2019 16:00:00 10,6 9,5 11 6 18 10 NE 1008,7 20
20.10.2019 15:00:00 10,8 10,0 11 6 18 10 NE 1008,2 18
20.10.2019 14:00:00 10,5 9,5 11 6 - - ENE 1008,5 20
20.10.2019 13:00:00 10,8 10,5 7 4 14 8 ENE 1008,7 4,9
20.10.2019 12:00:00 10,6 10,4 8 4 11 6 NNE 1008,3 7
20.10.2019 11:00:00 10,8 10,5 4 2 - - N 1008,8 5
20.10.2019 10:00:00 10,6 10,4 4 2 4 2 - 1008,3 4,6
20.10.2019 09:00:00 9,8 9,6 4 2 4 2 N 1008,0 7
20.10.2019 08:00:00 10,3 9,7 4 2 - - N 1007,7 17
20.10.2019 07:00:00 9,8 9,2 4 2 4 2 N 1008,0 10
20.10.2019 06:00:00 10,3 9,5 0 0 7 4 N 1007,2 16
20.10.2019 05:00:00 10,6 9,7 4 2 - - N 1007,5 18
20.10.2019 04:00:00 10,8 9,8 4 2 7 4 N 1007,2 19
20.10.2019 03:00:00 10,6 9,7 4 2 11 6 N 1007,2 20
20.10.2019 02:00:00 10,8 9,7 7 4 - - S 1007,7 20
20.10.2019 01:00:00 11,0 9,8 4 2 14 8 N 1007,3 20
20.10.2019 00:00:00 10,8 9,8 11 6 14 8 SSW 1007,7 20
19.10.2019 23:00:00 10,8 9,8 7 4 - - SSW 1007,1 20
19.10.2019 22:00:00 11,1 9,6 14 8 18 10 S 1006,7 20
19.10.2019 21:00:00 10,9 9,5 7 4 18 10 S 1006,3 20
19.10.2019 20:00:00 11,4 9,6 11 6 - - SSW 1006,0 20
19.10.2019 19:00:00 12,1 9,8 7 4 14 8 S 1005,3 20
19.10.2019 18:00:00 12,6 9,6 11 6 22 12 SSW 1005,2 20
19.10.2019 17:00:00 13,1 9,7 14 8 - - SSW 1004,8 20
19.10.2019 16:00:00 13,3 9,8 18 10 25 14 SSW 1004,6 20
19.10.2019 15:00:00 13,6 9,1 18 10 29 16 SW 1004,7 20
19.10.2019 14:00:00 13,5 8,8 14 8 - - SW 1004,6 20
19.10.2019 13:00:00 13,3 10,0 18 10 29 16 SW 1004,7 20
19.10.2019 12:00:00 12,9 10,3 18 10 32 18 SW 1004,6 20
19.10.2019 11:00:00 12,4 10,5 18 10 - - SSW 1004,6 20
19.10.2019 10:00:00 12,1 10,6 18 10 29 16 S 1004,3 19
19.10.2019 09:00:00 11,6 10,3 18 10 25 14 S 1004,1 20
19.10.2019 08:00:00 11,3 10,1 14 8 - - S 1004,0 20
19.10.2019 07:00:00 11,3 10,1 14 8 25 14 S 1004,5 20
19.10.2019 06:00:00 11,1 10,0 14 8 25 14 S 1005,0 11
19.10.2019 05:00:00 11,3 9,6 18 10 - - S 1005,3 14
19.10.2019 04:00:00 11,6 8,8 14 8 22 12 S 1005,3 20
19.10.2019 03:00:00 11,2 8,3 14 8 25 14 S 1005,7 20
19.10.2019 02:00:00 11,4 7,9 18 10 - - S 1006,2 20
19.10.2019 01:00:00 11,3 7,4 14 8 25 14 S 1006,6 20
19.10.2019 00:00:00 11,6 7,3 14 8 29 16 S 1006,8 20
18.10.2019 23:00:00 11,5 7,1 18 10 - - S 1007,5 20
18.10.2019 22:00:00 11,3 6,9 18 10 29 16 S 1007,8 20
18.10.2019 21:00:00 11,4 6,6 18 10 25 14 S 1008,2 20
18.10.2019 20:00:00 11,3 6,7 14 8 - - S 1008,5 20
18.10.2019 19:00:00 11,8 6,6 18 10 36 19 SSW 1008,3 20
18.10.2019 18:00:00 13,4 6,9 22 12 40 21 SSW 1008,1 20
18.10.2019 17:00:00 13,9 7,1 29 16 - - SW 1007,7 20
18.10.2019 16:00:00 13,6 7,1 29 16 50 27 SW 1007,2 20
18.10.2019 15:00:00 13,6 6,8 32 18 50 27 SW 1006,8 20
18.10.2019 14:00:00 13,0 6,9 36 19 - - SW 1006,2 20
18.10.2019 13:00:00 12,6 7,3 40 21 65 35 SW 1005,7 20
18.10.2019 12:00:00 11,5 6,7 34 18 47 25 SW 1005,1 10
18.10.2019 11:00:00 11,0 7,9 22 12 - - SSW 1004,0 20
18.10.2019 10:00:00 11,4 10,3 39 21 54 29 SSW 1004,5 10
18.10.2019 09:00:00 13,3 10,5 22 12 32 18 S 1004,1 20
18.10.2019 08:00:00 13,0 10,8 18 10 - - S 1004,5 20
18.10.2019 07:00:00 13,0 11,2 14 8 25 14 S 1005,3 20
18.10.2019 06:00:00 13,1 11,3 14 8 25 14 S 1006,1 20
18.10.2019 05:00:00 13,1 11,7 18 10 - - SSW 1006,6 20
18.10.2019 04:00:00 12,8 11,9 11 6 25 14 S 1007,0 20
18.10.2019 03:00:00 12,6 11,4 22 12 32 18 S 1007,7 5
18.10.2019 02:00:00 13,1 11,4 16 9 - - S 1008,3 10
18.10.2019 01:00:00 12,9 11,2 18 10 29 16 S 1008,7 20
18.10.2019 00:00:00 12,9 11,3 18 10 25 14 S 1008,8 20
17.10.2019 23:00:00 12,4 11,2 18 10 - - S 1009,5 20
17.10.2019 22:00:00 12,4 11,3 14 8 25 14 SSW 1009,7 20
17.10.2019 21:00:00 12,3 11,5 11 6 18 10 S 1009,7 20
17.10.2019 20:00:00 12,4 11,7 11 6 - - S 1009,7 20
17.10.2019 19:00:00 13,1 12,2 7 4 14 8 SSW 1009,6 20
17.10.2019 18:00:00 13,6 12,9 11 6 18 10 SSW 1009,6 20
17.10.2019 17:00:00 13,5 12,5 14 8 - - SSW 1009,7 7
17.10.2019 16:00:00 13,9 13,0 8 4 18 10 SSW 1009,7 10
17.10.2019 15:00:00 13,3 12,9 4 2 18 10 N 1010,3 4,0
17.10.2019 14:00:00 13,7 11,6 11 6 - - SSW 1010,7 15
17.10.2019 13:00:00 14,4 10,9 14 8 25 14 S 1010,7 20
17.10.2019 12:00:00 13,8 10,8 18 10 25 14 SSW 1011,2 20
17.10.2019 11:00:00 13,2 10,4 14 8 - - SSW 1011,3 17
17.10.2019 10:00:00 12,0 10,9 11 6 25 14 SW 1011,3 8
17.10.2019 09:00:00 11,6 10,8 14 8 22 12 WSW 1011,0 7
17.10.2019 08:00:00 12,1 11,6 15 8 - - WSW 1010,1 5
17.10.2019 07:00:00 12,8 12,4 11 6 25 14 WSW 1009,1 12
17.10.2019 06:00:00 13,3 13,0 14 8 25 14 SSW 1008,7 3,2
17.10.2019 05:00:00 13,1 12,7 18 10 - - SSW 1008,2 6
17.10.2019 04:00:00 13,1 12,7 21 11 32 18 SSW 1008,2 10
17.10.2019 03:00:00 13,3 12,4 25 14 40 21 SSW 1008,2 20
17.10.2019 02:00:00 13,3 12,4 22 12 - - SSW 1007,7 20
17.10.2019 01:00:00 13,0 12,3 25 14 36 19 S 1007,6 15
17.10.2019 00:00:00 12,8 12,2 25 14 36 19 S 1007,7 20
16.10.2019 23:00:00 13,1 12,1 25 14 - - S 1007,8 8
16.10.2019 22:00:00 13,5 12,3 25 14 36 19 S 1007,8 17
16.10.2019 21:00:00 13,6 12,6 25 14 40 21 S 1007,8 20
16.10.2019 20:00:00 13,5 12,8 22 12 - - S 1008,1 10
16.10.2019 19:00:00 13,6 12,9 22 12 36 19 S 1008,0 9
16.10.2019 18:00:00 13,5 12,8 25 14 40 21 SSW 1007,8 17
16.10.2019 17:00:00 13,5 12,7 25 14 - - SSW 1008,0 20
16.10.2019 16:00:00 13,6 12,8 25 14 40 21 SSW 1008,0 7
16.10.2019 15:00:00 13,6 12,4 25 14 43 23 SSW 1008,0 7
16.10.2019 14:00:00 13,7 11,9 29 16 - - SSW 1008,1 20
16.10.2019 13:00:00 13,3 11,8 29 16 43 23 S 1008,2 8
16.10.2019 12:00:00 12,2 10,9 22 12 36 19 S 1008,5 8
16.10.2019 11:00:00 11,8 10,7 25 14 - - S 1009,1 12
16.10.2019 10:00:00 11,6 10,1 22 12 32 18 S 1009,5 7

tt = Température de l'air
td = dewpoint
ff = Vitesse du vent
fx = gusts
dd = Direction du vent
ppp = reduced air pressure
vv = visibility

stations d'obs. à proximité